Location: Newark
(29.9790°N, 31.1340°E)
Time: 05:30:04
(UTC+00:00)

Tiros 1 despin weight - All Passes

Search period start: 27 January 2020 00:00
Search period end: 06 February 2020 00:00
Orbit: 594 x 642 km, 48.2° (Epoch: 26 January)

Date Brightness Start Highest point End Pass type
(mag) Time Alt. Az. Time Alt. Az. Time Alt. Az.
27 Jan - 06:51:49 10° SSW 06:56:04 48° SE 07:00:24 10° ENE daylight
27 Jan - 08:34:02 10° W 08:37:46 26° NNW 08:41:34 10° NNE daylight
27 Jan - 13:43:26 10° NNW 13:47:07 23° NNE 13:50:50 10° E daylight
27 Jan - 15:24:22 10° NW 15:28:58 63° SW 15:33:36 10° SE daylight
28 Jan - 05:29:32 10° SSE 05:31:29 13° SE 05:33:26 10° E daylight
28 Jan - 07:08:07 10° SW 07:12:33 75° NW 07:17:03 10° NE daylight
28 Jan - 08:51:57 10° WNW 08:54:42 16° NNW 08:57:28 10° NNE daylight
28 Jan - 12:19:51 10° N 12:21:23 11° NNE 12:22:54 10° NE daylight
28 Jan - 13:59:32 10° NW 14:03:55 40° NE 14:08:20 10° ESE daylight
28 Jan - 15:41:23 10° WNW 15:45:21 28° SW 15:49:21 10° S daylight
29 Jan - 05:43:55 10° SSW 05:47:45 29° SE 05:51:38 10° ENE daylight
29 Jan - 07:25:06 10° WSW 07:29:12 36° NW 07:33:22 10° NNE daylight
29 Jan - 09:10:57 10° NNW 09:11:49 10° NNW 09:12:40 10° N daylight
29 Jan - 12:35:23 10° NNW 12:38:27 17° NNE 12:41:32 10° ENE daylight
29 Jan - 14:15:53 10° NW 14:20:33 83° NE 14:25:13 10° SE daylight
29 Jan - 15:59:42 10° WSW 16:01:38 12° SW 16:03:35 10° SSW visible
30 Jan - 05:59:46 10° SW 06:04:09 69° SE 06:08:36 10° NE daylight
30 Jan - 07:42:41 10° WNW 07:46:01 20° NNW 07:49:25 10° NNE daylight
30 Jan - 12:51:21 10° NNW 12:55:21 28° NNE 12:59:23 10° E daylight
30 Jan - 14:32:35 10° WNW 14:37:01 45° SW 14:41:28 10° SSE daylight
31 Jan - 04:36:28 10° S 04:39:29 18° SE 04:42:32 10° E daylight
31 Jan - 06:16:22 10° WSW 06:20:42 54° NW 06:25:06 10° NE daylight
31 Jan - 08:00:57 10° NW 08:03:02 13° NNW 08:05:08 10° N daylight
31 Jan - 11:27:29 10° N 11:29:44 13° NNE 11:31:58 10° NE daylight
31 Jan - 13:07:33 10° NW 13:12:04 54° NE 13:16:38 10° ESE daylight
31 Jan - 14:49:57 10° W 14:53:21 20° SW 14:56:46 10° S daylight
01 Feb - 04:51:40 10° SSW 04:55:48 42° SE 05:00:00 10° ENE daylight
01 Feb - 06:33:36 10° W 06:37:25 28° NNW 06:41:17 10° NNE daylight
01 Feb - 11:43:15 10° NNW 11:46:43 21° NNE 11:50:14 10° ENE daylight
01 Feb - 13:24:01 10° NW 13:28:37 72° SW 13:33:16 10° SE daylight
02 Feb - 03:30:10 10° SE 03:31:15 11° SE 03:32:19 10° ESE visible
02 Feb - 05:07:51 10° SW 05:12:15 84° NW 05:16:43 10° NE daylight
02 Feb - 06:51:28 10° WNW 06:54:19 17° NNW 06:57:13 10° NNE daylight
02 Feb - 10:20:01 10° N 10:20:56 11° NNE 10:21:53 10° NNE daylight
02 Feb - 11:59:18 10° NNW 12:03:33 36° NE 12:07:50 10° ESE daylight
02 Feb - 13:40:56 10° WNW 13:45:02 32° SW 13:49:10 10° SSE daylight
03 Feb - 03:43:52 10° S 03:47:30 26° SE 03:51:10 10° ENE visible
03 Feb - 05:24:44 10° WSW 05:28:53 39° NW 05:33:04 10° NE daylight
03 Feb - 07:10:14 10° NNW 07:11:24 11° NNW 07:12:34 10° N daylight
03 Feb - 10:35:15 10° NNW 10:38:02 16° NNE 10:40:51 10° ENE daylight
03 Feb - 12:15:36 10° NW 12:20:11 73° NE 12:24:50 10° SE daylight
03 Feb - 13:58:54 10° W 14:01:20 14° SW 14:03:47 10° SSW daylight
04 Feb - 03:59:33 10° SW 04:03:52 60° SE 04:08:14 10° NE visible
04 Feb - 05:42:13 10° W 05:45:41 22° NNW 05:49:09 10° NNE daylight
04 Feb - 10:51:09 10° NNW 10:54:58 26° NNE 10:58:49 10° E daylight
04 Feb - 12:32:13 10° WNW 12:36:41 51° SW 12:41:10 10° SSE daylight
05 Feb - 02:36:34 10° SSE 02:39:15 16° SE 02:41:55 10° E visible
05 Feb - 04:16:03 10° WSW 04:20:24 60° NW 04:24:48 10° NE visible
05 Feb - 06:00:24 10° NW 06:02:39 14° NNW 06:04:55 10° N daylight
05 Feb - 09:27:27 10° N 09:29:18 12° NNE 09:31:10 10° NE daylight
05 Feb - 11:07:17 10° NW 11:11:43 47° NE 11:16:10 10° ESE daylight
05 Feb - 12:49:27 10° WNW 12:53:03 23° SW 12:56:40 10° S daylight
